Wind_Speed
14 12 15 16 8 9 8 8 8 5 1 6 9 10 7 13 15 16 16 15 16 15 16 16 16 15 14 15 15 14 13 15 14 14 14 13 12 10 7 9 9 9 7 5
9 18 18 4 7 8 10 9 6 1 1 7 7 11 10 14 18 19 17 16 15 14 14 15 17 18 18 17 17 17 16 16 16 14 13 9 10 11 10 11 11 11 8 7
18 2 10 9 13 10 12 9 8 9 3 9 10 14 7 14 18 17 20 17 16 16 16 13 17 20 19 19 18 18 18 18 18 16 12 10 9 6 7 11 13 12 9 6
13 17 7 10 15 10 12 7 9 9 6 3 3 5 4 7 12 19 19 20 19 19 18 15 17 22 22 21 20 19 19 19 18 18 15 14 14 14 10 11 12 12 9 7
13 9 15 17 13 5 6 5 6 5 8 7 11 7 7 5 8 12 17 20 21 23 20 19 18 23 23 22 21 21 20 20 18 17 15 12 12 11 10 9 9 9 9 7
18 8 6 15 16 11 2 5 3 4 4 10 7 6 4 4 2 3 7 16 20 21 21 21 23 21 22 22 21 21 21 19 18 17 16 16 11 9 10 12 11 12 11 9
15 18 16 8 12 9 11 12 8 7 8 6 5 7 7 2 2 4 5 8 18 20 20 19 18 22 21 23 24 22 23 22 19 18 16 16 14 13 11 10 13 13 13 12
10 14 19 16 17 12 16 15 10 6 8 5 5 6 2 5 3 0 2 4 14 20 20 20 19 24 24 25 24 23 22 22 22 20 18 15 13 12 13 12 12 13 13 12
7 10 9 15 15 18 10 9 13 14 8 8 10 3 13 2 6 6 4 5 11 18 19 21 22 25 24 27 25 26 22 21 21 21 19 17 15 14 12 11 10 13 11 11
8 8 9 14 13 13 15 11 10 11 10 9 5 4 4 4 4 9 8 7 10 13 16 18 18 22 22 21 22 23 26 22 23 21 20 18 18 16 15 12 13 13 12 12
20 13 7 6 16 17 11 14 13 14 4 8 9 3 6 4 5 10 8 8 8 11 14 15 17 21 19 18 22 22 24 21 22 20 19 18 17 18 16 15 14 13 13 12
20 10 13 18 7 13 18 22 21 11 14 12 13 8 6 2 7 7 7 8 8 8 12 14 16 20 19 17 19 21 21 21 19 18 18 17 18 17 18 18 17 14 14 13
8 12 12 13 14 10 12 13 16 17 16 17 10 6 5 6 7 8 8 10 9 9 11 13 14 16 19 19 19 19 20 19 17 15 16 17 17 18 20 18 18 17 16 16
7 16 14 14 16 16 19 19 16 17 11 13 13 15 7 9 9 12 9 12 12 11 12 12 13 14 18 19 21 20 20 19 17 15 17 17 17 17 18 17 17 18 17 16
9 16 14 16 20 11 12 18 17 17 17 16 12 13 9 7 9 13 13 13 14 13 13 12 13 12 17 19 19 19 18 18 17 16 16 17 16 15 16 17 16 17 17 18
9 13 13 14 17 14 14 17 15 17 19 16 14 9 8 8 9 14 15 16 15 15 14 13 12 12 15 18 19 18 17 16 16 15 14 14 14 13 14 13 15 15 14 14
12 10 15 18 17 10 15 17 16 16 16 13 15 13 8 10 14 18 17 16 16 16 15 14 13 12 13 15 15 16 17 16 16 15 14 14 14 14 14 14 14 15 14 13
12 13 12 14 18 20 12 2 4 13 17 19 18 12 7 7 11 15 18 17 17 15 15 13 12 14 14 15 15 14 14 15 16 16 15 16 15 15 15 14 14 14 14 15
18 14 13 15 18 18 20 10 4 7 16 17 17 13 4 4 7 13 18 17 18 17 15 16 17 16 15 15 16 15 14 14 13 13 14 14 13 12 10 11 11 11 12 13
17 14 14 12 20 24 11 12 4 5 9 4 15 16 7 8 10 12 17 17 19 19 20 21 20 17 16 16 16 16 15 14 13 13 13 12 11 9 9 8 8 8 10 12
7 12 18 15 14 16 10 11 3 8 4 9 8 8 10 11 5 7 21 18 20 22 23 24 22 19 18 18 16 15 13 11 11 12 12 12 10 8 6 6 6 6 8 10
8 4 13 21 19 17 4 9 14 7 5 8 9 9 10 9 5 6 21 21 20 19 24 23 21 20 19 16 15 12 9 9 10 11 10 10 8 7 5 5 5 6 7 8
8 8 4 6 7 8 6 6 9 10 5 3 5 7 7 10 9 9 19 20 20 22 24 23 22 20 17 15 12 10 9 9 9 10 11 10 10 8 7 7 7 10 11 12
4 4 5 8 6 5 7 4 6 6 3 3 6 5 7 6 8 9 16 17 17 21 22 23 22 20 16 12 10 8 8 8 8 9 9 9 10 9 8 9 11 12 13 13
3 6 6 8 4 2 9 12 10 9 8 5 6 11 11 7 10 9 13 17 17 21 22 23 21 18 15 12 9 8 7 7 7 7 8 8 9 7 9 11 10 9 7 8
8 6 5 7 3 10 9 14 16 13 14 14 12 12 10 10 10 10 12 15 21 22 23 22 20 19 16 12 9 8 7 6 5 5 6 7 7 9 11 11 10 8 9 11
Wind_Direction
203 231 229 239 237 303 303 299 324 9 39 236 245 249 226 189 201 205 217 205 206 201 201 186 191 182 176 175 172 174 172 168 169 171 176 182 206 221 217 195 190 190 189 200
198 233 244 264 277 271 273 291 328 42 295 240 279 268 243 210 214 210 209 214 212 202 195 190 188 187 186 183 178 180 190 180 181 189 195 185 189 192 187 192 186 184 195 190
232 201 265 226 247 250 257 266 313 318 316 246 283 265 217 218 218 212 208 220 215 208 195 193 195 191 189 185 186 185 192 189 189 191 193 198 194 171 182 184 186 187 190 189
245 251 218 242 240 257 270 26 305 290 256 315 248 307 248 194 216 220 216 209 205 219 204 194 191 193 190 188 188 187 190 187 190 194 191 195 209 183 188 184 181 181 183 191
223 218 227 239 234 211 290 324 302 278 249 292 190 265 114 169 222 223 216 214 205 209 202 201 199 194 191 187 186 186 188 190 192 198 199 194 217 200 187 189 167 186 187 201
253 174 266 247 238 238 260 224 225 213 270 249 112 286 209 99 17 198 203 207 206 203 200 196 196 191 190 186 188 187 189 191 193 201 204 200 198 214 200 199 193 198 201 207
219 238 235 237 204 190 217 234 239 224 206 264 98 275 278 308 236 256 246 206 196 196 198 192 182 182 183 189 189 191 191 192 194 201 207 210 204 211 212 216 217 214 209 213
216 212 213 211 227 214 209 243 261 264 270 249 154 251 80 338 155 199 237 202 186 188 192 189 184 186 187 190 190 194 193 195 194 202 207 212 211 215 211 213 229 219 227 219
200 230 172 211 210 225 193 230 256 284 238 264 272 251 255 213 257 181 163 154 177 187 192 193 186 183 191 189 192 194 193 199 196 203 206 211 215 216 217 225 228 234 236 239
245 264 206 205 217 227 260 259 215 224 267 262 224 266 290 8 178 171 170 156 164 182 191 190 186 184 188 192 195 191 190 203 200 203 208 210 214 217 221 225 232 236 239 234
235 236 240 183 207 212 195 230 237 280 276 277 248 166 54 1 181 175 158 151 163 176 182 184 186 183 187 185 190 195 196 204 207 207 209 214 214 216 221 228 234 240 235 229
224 230 234 233 180 237 250 220 237 230 221 240 293 306 92 109 170 179 143 148 144 158 170 177 179 179 183 184 187 195 193 200 203 204 208 215 216 221 223 228 231 233 235 235
182 220 239 230 218 198 231 231 247 249 248 249 239 221 126 145 187 173 164 148 145 147 156 168 172 177 183 182 183 183 187 195 199 198 205 211 214 219 227 230 234 232 229 231
288 253 231 241 213 206 208 228 225 243 228 230 215 273 217 171 193 183 165 156 152 154 156 162 170 172 177 183 182 182 185 193 200 205 210 210 211 215 223 226 230 232 231 232
248 244 252 245 271 269 230 218 220 224 239 247 244 228 237 203 191 177 159 154 153 153 163 163 167 167 176 177 181 189 194 197 198 198 204 208 207 217 221 217 217 228 227 229
275 258 256 257 246 245 235 239 238 223 241 248 237 265 238 120 160 160 163 160 161 163 161 162 158 162 173 177 183 186 194 194 194 188 198 200 202 209 211 213 214 217 221 224
284 258 240 243 238 232 236 236 229 229 227 236 233 236 176 174 176 174 169 167 161 165 161 159 160 164 170 174 176 180 183 182 183 185 191 196 201 207 212 217 218 218 224 232
257 275 265 251 244 233 242 115 264 255 238 229 246 243 178 229 187 179 175 166 157 159 158 156 152 146 157 156 158 160 168 177 187 200 207 208 211 219 219 219 225 232 239 239
240 246 260 247 235 238 229 204 247 222 233 238 235 237 168 177 170 176 177 170 160 157 153 153 146 144 141 146 148 151 155 163 174 185 190 195 200 205 208 217 224 230 237 243
249 214 248 243 238 230 215 116 125 150 234 297 229 244 187 180 204 174 174 166 156 155 155 148 142 140 141 145 149 150 154 161 169 171 173 173 176 183 194 211 221 234 244 253
219 191 222 244 256 235 131 152 137 208 113 49 15 280 218 218 282 152 158 158 157 155 154 152 151 146 147 149 151 152 156 162 161 160 161 164 168 177 189 199 215 235 251 264
220 305 213 223 247 245 13 218 234 261 77 48 39 11 318 255 304 168 163 159 155 154 150 158 154 149 153 156 155 153 156 157 164 168 175 182 190 205 206 216 231 248 266 263
203 213 313 296 226 342 345 347 17 32 9 77 52 6 321 289 229 196 172 164 159 159 158 162 154 154 157 160 160 156 157 170 180 196 207 210 210 217 222 237 257 269 262 254
192 190 250 324 44 22 21 16 1 15 293 339 8 7 338 302 228 197 169 163 159 159 160 161 159 158 153 153 155 163 174 188 200 209 213 214 220 223 235 254 268 278 283 275
294 183 188 280 12 284 64 26 12 6 351 290 31 27 346 301 245 208 177 164 163 162 161 162 163 152 147 154 156 163 167 176 195 208 216 220 229 230 259 263 278 281 277 263
222 233 211 219 303 338 340 341 344 351 358 357 6 358 347 318 253 214 183 171 163 162 160 158 152 150 151 151 150 148 152 164 182 198 213 235 250 257 269 273 261 236 255 269
Height
771 781 782 769 765 770 777 780 783 774 772 783 781 779 772 775 779 787 781 778 778 779 784 789 798 802 807 812 818 822 825 828 830 833 835 836 838 840 841 842 843 844 845 845
778 784 761 759 768 775 775 780 779 773 774 780 773 774 764 764 766 771 774 774 774 775 780 786 793 799 804 809 814 819 824 827 829 831 834 836 838 838 838 840 843 844 844 844
778 764 756 769 771 779 773 776 778 782 772 771 775 767 760 754 755 759 765 768 768 772 775 783 789 794 799 805 810 816 821 825 828 830 834 836 837 838 839 839 841 843 844 844
770 755 769 773 774 769 780 764 771 774 780 781 768 784 756 750 756 754 754 759 768 766 771 776 783 789 794 800 806 812 818 822 826 828 831 835 834 833 834 836 838 841 843 844
770 768 770 776 768 763 774 766 771 771 773 774 766 777 750 753 757 750 747 747 752 758 762 770 778 783 789 796 801 808 814 819 822 825 828 832 832 831 834 835 838 839 842 843
761 752 761 758 753 756 761 769 770 769 771 782 762 771 753 746 746 740 736 738 743 749 755 762 771 779 786 792 798 803 810 815 819 822 825 829 831 831 831 834 836 837 839 841
764 762 754 753 760 760 765 767 784 789 783 779 754 770 748 731 730 733 733 731 734 744 749 756 764 778 785 788 794 799 805 811 815 819 823 825 829 831 833 834 834 833 835 837
770 775 754 746 756 758 764 759 774 801 787 771 754 771 743 725 723 726 727 727 729 738 744 752 761 772 779 786 790 796 801 807 811 816 820 823 826 828 831 831 829 831 831 833
761 764 734 738 740 746 755 773 744 760 755 776 754 743 721 719 725 726 728 730 733 736 740 747 755 765 773 781 785 792 798 804 808 812 816 820 822 825 826 828 830 831 832 832
742 767 737 734 735 739 745 734 767 757 792 793 757 759 747 733 732 728 729 729 733 734 738 743 751 760 769 777 783 789 795 798 804 808 812 815 818 821 823 826 827 828 830 831
735 746 747 741 749 746 752 754 749 740 748 771 771 752 719 727 725 727 724 727 730 732 737 742 749 759 767 774 781 785 791 796 800 804 807 811 814 817 820 822 824 825 826 828
728 735 752 742 720 719 722 734 736 757 768 755 752 751 711 719 718 719 722 726 727 731 736 742 748 756 765 771 776 781 787 792 797 800 803 807 810 813 815 817 819 821 822 824
726 743 753 747 730 729 740 731 726 724 728 748 759 744 716 719 720 720 721 726 732 734 737 742 748 754 762 768 775 779 785 789 793 796 799 802 805 808 811 813 815 817 818 820
730 728 733 740 730 720 739 729 722 724 740 740 738 731 717 718 720 719 721 725 730 734 739 742 746 753 759 766 771 776 782 786 789 792 795 798 801 803 807 809 811 812 814 816
727 739 725 720 711 709 713 717 718 727 722 732 720 724 715 706 712 715 718 724 730 734 738 742 744 750 757 762 768 773 777 782 784 788 792 795 797 800 802 805 807 808 811 811
727 740 727 730 715 715 725 713 712 717 714 712 712 716 696 697 704 713 719 723 729 732 735 739 743 749 754 759 764 769 774 778 782 785 789 792 795 797 799 800 802 804 805 806
745 733 735 741 713 718 733 714 710 710 705 712 723 708 693 709 710 713 717 719 723 728 732 737 742 747 752 757 762 766 770 775 779 783 787 790 793 795 797 798 799 799 801 802
747 742 730 730 722 749 708 692 698 704 701 698 695 691 694 696 700 704 708 713 720 726 731 736 739 746 751 755 760 765 769 773 777 781 784 787 789 792 793 794 795 796 798 798
728 741 740 734 725 712 701 698 707 712 712 693 696 690 693 698 697 704 702 706 714 722 729 735 741 746 750 756 761 765 769 772 776 778 781 784 786 789 790 791 792 793 794 794
711 728 736 725 729 729 699 692 692 693 725 692 694 692 696 700 714 701 699 703 711 721 728 733 741 748 752 757 761 765 768 771 774 776 779 782 784 786 788 789 790 791 791 791
724 734 757 734 724 703 683 690 687 725 720 704 701 697 694 703 690 680 694 703 711 719 726 734 740 746 752 757 761 764 768 770 773 775 778 781 783 785 786 787 788 788 788 788
743 746 730 731 739 732 681 687 708 695 693 701 706 705 701 696 696 690 694 701 709 718 726 733 738 745 751 756 760 764 767 770 773 775 777 779 781 782 783 785 785 786 785 785
744 737 740 739 713 707 700 701 698 700 700 706 707 706 708 702 696 692 694 700 707 716 724 731 737 745 751 756 759 763 767 770 771 773 775 776 778 780 781 782 782 781 780 779
731 736 737 728 713 714 713 708 708 709 707 706 706 706 703 703 695 695 695 700 707 716 723 729 737 744 750 756 759 762 766 768 770 771 773 774 776 777 778 777 777 777 776 773
734 733 736 736 720 712 709 713 713 711 713 708 706 701 703 703 699 695 696 700 707 715 722 729 735 742 750 755 758 761 763 766 768 770 771 773 773 775 774 775 774 774 774 775
724 730 741 740 722 723 716 715 713 710 710 709 704 704 704 704 701 698 699 702 707 714 721 729 736 743 749 754 758 761 763 765 767 769 769 769 769 770 770 769 769 770 771 772